Cut Bank, MT

6:38 AM MST on December 05, 2016 (GMT -0700)
Cut Bank Municipal

Weather History for KCTB - December, 2011

Change the Weather History Date:

Saturday, December 17, 2011

  Actual Average Record
Temperature  
Mean Temperature 44 °F 22 °F  
Max Temperature 49 °F 32 °F 57 °F (1913)
Min Temperature 38 °F 11 °F -32 °F (1922)
Degree Days  
Heating Degree Days 21 43  
Month to date heating degree days 706 715  
Since 1 July heating degree days 2679 2978  
Cooling Degree Days 0 0  
Month to date cooling degree days 0 0  
Year to date cooling degree days 151 162  
Moisture  
Dew Point 28 °F    
Average Humidity 52    
Maximum Humidity 64    
Minimum Humidity 39    
Precipitation  
Precipitation 0.00 in 0.01 in 0.19 in (1998)
Month to date precipitation 0.01 0.12  
Year to date precipitation 5.95 10.80  
Snow  
Snow 0.00 in - - ()
Snow Depth 1.00 in    
Sea Level Pressure  
Sea Level Pressure 30.03 in    
Wind  
Wind Speed 23 mph (WSW)    
Max Wind Speed 55 mph    
Max Gust Speed 67 mph    
Visibility 10 miles    
Events      
T = Trace of Precipitation, MM = Missing Value Source: NWS Daily Summary

Daily Weather History Graph

Daily Weather History Graph

Search for Another Location

Airport or City:

Trip Planner

Search our weather history database for the weather conditions in past years. The results will help you decide how hot, cold, wet, or windy it might be!

Date:

Astronomy

Dec. 17, 2011 Rise Set
Actual Time 8:16 AM MST 4:34 PM MST
Civil Twilight 7:39 AM MST 5:11 PM MST
Nautical Twilight 6:59 AM MST 5:51 PM MST
Astronomical Twilight 6:21 AM MST 6:30 PM MST
Moon No Moon Rise 12:00 PM MST (12/17)
Length of Visible Light 9h 31m
Length of Day
8h 17m
Waning Gibbous, 53% of the Moon is Illuminated
Dec 17
Waning Gibbous
Dec 17
Last Quarter
Dec 24
New
Dec 31
First Quarter
Jan 9
Full

Hourly Weather History & Observations

Time (MST) Temp. Windchill Dew Point Humidity Pressure Visibility Wind Dir Wind Speed Gust Speed Precip Events Conditions
12:56 AM 39.0 °F 28.5 °F 28.9 °F 67% 30.19 in 10.0 mi West 23.0 mph 28.8 mph N/A   Clear
1:56 AM 39.0 °F 29.0 °F 28.9 °F 67% 30.17 in 10.0 mi WSW 20.7 mph 28.8 mph N/A   Clear
2:56 AM 39.9 °F 30.2 °F 28.9 °F 65% 30.16 in 10.0 mi WSW 20.7 mph 28.8 mph N/A   Clear
3:56 AM 41.0 °F 30.5 °F 28.0 °F 60% 30.14 in 10.0 mi WSW 26.5 mph 36.8 mph N/A   Clear
4:56 AM 41.0 °F 31.9 °F 28.9 °F 62% 30.14 in 10.0 mi WSW 19.6 mph - N/A   Clear
5:56 AM 42.1 °F 33.1 °F 28.9 °F 60% 30.12 in 10.0 mi WSW 20.7 mph 28.8 mph N/A   Clear
6:56 AM 42.1 °F 35.7 °F 28.9 °F 60% 30.12 in 10.0 mi West 11.5 mph - N/A   Clear
7:56 AM 41.0 °F 33.5 °F 28.0 °F 60% 30.10 in 10.0 mi West 13.8 mph 18.4 mph N/A   Clear
8:56 AM 42.1 °F 31.9 °F 28.9 °F 60% 30.09 in 10.0 mi WSW 26.5 mph 36.8 mph N/A   Clear
9:56 AM 45.0 °F 34.6 °F 28.0 °F 52% 30.05 in 10.0 mi WSW 34.5 mph 40.3 mph N/A   Clear
10:56 AM 46.0 °F 35.3 °F 28.0 °F 50% 30.08 in 10.0 mi West 40.3 mph 52.9 mph N/A   Clear
11:56 AM 45.0 °F 32.8 °F 28.0 °F 52% 30.00 in 10.0 mi West 49.5 mph 66.7 mph N/A   Clear
12:56 PM 46.0 °F 35.6 °F 27.0 °F 47% 30.01 in 10.0 mi West 38.0 mph 49.5 mph N/A   Clear
1:56 PM 46.9 °F - 26.1 °F 44% 30.03 in 10.0 mi WSW 26.5 mph 38.0 mph N/A   Clear
2:56 PM 48.0 °F - 25.0 °F 41% 29.96 in 10.0 mi WSW 36.8 mph 48.3 mph N/A   Clear
3:56 PM 48.0 °F - 26.1 °F 42% 30.01 in 10.0 mi WSW 24.2 mph 31.1 mph N/A   Clear
4:56 PM 45.0 °F 39.3 °F 26.1 °F 48% 30.01 in 10.0 mi West 11.5 mph - N/A   Clear
5:56 PM 44.1 °F 38.6 °F 27.0 °F 51% 29.99 in 10.0 mi West 10.4 mph - N/A   Clear
6:56 PM 43.0 °F 36.4 °F 27.0 °F 53% 29.97 in 10.0 mi WSW 12.7 mph - N/A   Clear
7:56 PM 44.1 °F 36.5 °F 28.0 °F 53% 29.95 in 10.0 mi WSW 17.3 mph 24.2 mph N/A   Clear
8:56 PM 44.1 °F 36.5 °F 28.0 °F 53% 29.92 in 10.0 mi WSW 17.3 mph - N/A   Clear
9:56 PM 44.1 °F 39.5 °F 28.9 °F 55% 29.89 in 10.0 mi WSW 8.1 mph - N/A   Clear
10:56 PM 46.9 °F - 28.9 °F 50% 29.84 in 10.0 mi WSW 23.0 mph 31.1 mph N/A   Clear
11:56 PM 48.0 °F - 28.9 °F 48% 29.82 in 10.0 mi SW 21.9 mph 28.8 mph N/A   Clear